Showing default

LEMUR-2-DEANANDMAEVE, 66678

Orbit data source: Space-Track

LEMUR-2-DEANANDMAEVE, 66678 is a payload satellite owned by Spire (US) in SSO that was launched on Fri, 28 Nov 2025 UTC via an FALCON 9 launch vehicle from the Air Force Western Test Range (AFWTR). Payload-class satellites include a variety of spacecraft equipped with specific instruments for various scientific and technological missions. These include communications satellites like Starlink; space stations such as the ISS; scientific satellites like the Hubble; Earth observation satellites from companies like Planet Labs, Umbra, and HawkEye 360; GPS; miniature CubeSats for education and research; and military/defense satellites.

Loading next visibility...
Identifier
66678, 2025-276N
Orbit
SSO
Country
Flag of USUS
Related business
Manufacturer
Spire/Glasgow
Mission
Operational Commercial Com/MetRO
Bus & Motor
CUBESAT 3U, Unknown motor
Mass
7.6 kg wet, 7.6 kg dry
Launch date (UTC)
2025-11-28 (7 months ago)
Launch vehicle
FALCON 9
Launch site
Air Force Western Test Range (AFWTR)
Object type
Payload
Rocket body
Debris
Shape & HBR
Box + 2 Pan, 0.5 m
Radar Cross Section
0.063 m², Medium (>0.1 m² and < 1m²)

Expand to show TLE details & history
Last TLE update: 9 hours ago

TLE from 9 hours ago
0 LEMUR-2-DEANANDMAEVE
1 66678U 25276N   26171.47510795  .00005478  00000-0  25913-3 0  9997
2 66678  97.4207 244.8963 0005367   3.4964 356.6307 15.19766400 30919
Epoch: 2026-06-20T11:24Z
TLE epoch observation values (Epoch: 2026-06-20T11:24:09.326Z)
Latitude
-0.0001°
Longitude
165.16825°
Altitude
505.946 km
Speed
7.613 km/s
True Right ascension
16h 19m 35s
True Declination
0° 00' 00"
Sunlit
Object was in full shadow at epoch
Visualization orbit readout
Latitude
Unknown
Longitude
Unknown
Altitude
Unknown
Speed
Unknown
Apparent Right ascension
Unknown
Apparent Declination
Unknown
Sunlit
N/A
Visualization observer readout
Local Sidereal Time
07:24:19
Azimuth
Unknown
Elevation
Unknown
Doppler factor
Unknown
Orbital elements
Apogee altitude
507.206 km
Perigee altitude
499.819 km
Semi-major axis
6,881.65 km
Eccentricity
0.00054
Inclination
97.4207°
RAAN
244.8963°
Arg. of periapsis
3.4964°
True anomaly
356.62708°
Mean anomaly
356.6307°
Eccentric anomaly
356.62889°
Mean motion
3.80193 °/min
Orbital period
94.69 mins
BSTAR
0.00025913
Loading maneuver chart data...
Computing Atmospheric mass density...
Loading historical data...
Loading historical data...
Loading historical data...
Loading historical data...
Loading historical data...
Loading historical data...
Loading historical data...

Documentation

Showing up to 5 results
|